Girdwood, AK

5:46 PM AKST on January 18, 2017 (GMT -0900)
Portage Glacier

Weather History for PATO - February, 2014

Change the Weather History Date:

Thursday, February 6, 2014

  Actual Average (PAWR) Record (PAWR)
Temperature  
Mean Temperature 16 °F -  
Max Temperature 23 °F 32 °F 43 °F (1958)
Min Temperature 10 °F 25 °F 3 °F (1990)
Degree Days  
Heating Degree Days 48    
Moisture  
Dew Point 17 °F    
Average Humidity 95    
Maximum Humidity 100    
Minimum Humidity 88    
Precipitation  
Precipitation 0.03 in - - ()
Sea Level Pressure  
Sea Level Pressure 30.13 in    
Wind  
Wind Speed 2 mph (West)    
Max Wind Speed 6 mph    
Max Gust Speed -    
Visibility 8 miles    
Events Snow    
Averages and records for this station are not official NWS values.
T = Trace of Precipitation, MM = Missing Value Source: NWS Daily Summary

Daily Weather History Graph

Daily Weather History Graph

Search for Another Location

Airport or City:

Trip Planner

Search our weather history database for the weather conditions in past years. The results will help you decide how hot, cold, wet, or windy it might be!

Date:

Astronomy

Feb. 06, 2014 Rise Set
Actual Time 9:00 AM AKST 5:19 PM AKST
Civil Twilight 8:12 AM AKST 6:07 PM AKST
Nautical Twilight 7:21 AM AKST 6:58 PM AKST
Astronomical Twilight 6:32 AM AKST 7:47 PM AKST
Moon 10:50 AM AKST (2/6) 2:29 AM AKST (2/6)
Length of Visible Light 9h 54m
Length of Day
8h 19m
Waxing Crescent, 51% of the Moon is Illuminated
Feb 6
Waxing Crescent
Feb 14
Full
Feb 22
Last Quarter
Feb 28
New
Mar 8
First Quarter

Hourly Weather History & Observations

Time (AKST) Temp. Windchill Dew Point Humidity Pressure Visibility Wind Dir Wind Speed Gust Speed Precip Events Conditions
12:53 AM 12.9 °F - 10.9 °F 92% 30.57 in 10.0 mi Calm Calm - N/A   Clear
1:53 AM 10.9 °F 2.9 °F 9.0 °F 92% 30.55 in 10.0 mi West 4.6 mph - N/A   Clear
2:23 AM 12.9 °F - 10.9 °F 92% 30.54 in 10.0 mi Calm Calm - N/A   Mostly Cloudy
2:46 AM 14.0 °F 8.2 °F 12.0 °F 92% 30.54 in 10.0 mi WNW 3.5 mph - N/A   Scattered Clouds
2:53 AM 12.9 °F 5.2 °F 12.0 °F 96% 30.55 in 10.0 mi WNW 4.6 mph - N/A   Partly Cloudy
3:25 AM 12.9 °F - 10.9 °F 92% 30.53 in 10.0 mi Calm Calm - N/A   Scattered Clouds
3:34 AM 12.9 °F - 10.9 °F 92% 30.53 in 10.0 mi Calm Calm - N/A   Mostly Cloudy
3:53 AM 12.9 °F - 10.0 °F 88% 30.53 in 10.0 mi Calm Calm - N/A   Overcast
4:53 AM 17.1 °F - 15.1 °F 92% 30.51 in 10.0 mi Calm Calm - N/A   Overcast
5:53 AM 16.0 °F 8.8 °F 15.1 °F 96% 30.48 in 10.0 mi West 4.6 mph - N/A   Overcast
6:53 AM 17.1 °F 11.7 °F 15.1 °F 92% 30.45 in 10.0 mi West 3.5 mph - N/A   Overcast
7:53 AM 17.1 °F 11.7 °F 15.1 °F 92% 30.42 in 10.0 mi WNW 3.5 mph - N/A   Overcast
8:35 AM 17.1 °F 11.7 °F 15.1 °F 92% 30.40 in 10.0 mi West 3.5 mph - N/A   Overcast
8:53 AM 18.0 °F - 17.1 °F 96% 30.40 in 10.0 mi Calm Calm - N/A   Overcast
9:53 AM 18.0 °F 12.7 °F 17.1 °F 96% 30.35 in 10.0 mi Variable 3.5 mph - N/A   Overcast
10:53 AM 18.0 °F 9.8 °F 18.0 °F 100% 30.31 in 10.0 mi Variable 5.8 mph - N/A   Overcast
11:53 AM 19.0 °F - 18.0 °F 96% 30.25 in 10.0 mi Calm Calm - N/A   Overcast
12:53 PM 19.0 °F 13.9 °F 19.0 °F 100% 30.21 in 10.0 mi Variable 3.5 mph - N/A   Overcast
1:02 PM 19.0 °F 13.9 °F 19.0 °F 100% 30.19 in 10.0 mi Variable 3.5 mph - N/A   Overcast
1:53 PM 19.9 °F - 19.0 °F 96% 30.12 in 10.0 mi Calm Calm - N/A   Overcast
2:33 PM 21.0 °F - 19.9 °F 96% 30.07 in 10.0 mi Calm Calm - N/A   Overcast
2:48 PM 21.2 °F 16.4 °F 19.4 °F 93% 30.05 in 10.0 mi West 3.5 mph - N/A   Overcast
2:53 PM 21.0 °F 16.2 °F 19.9 °F 96% 30.06 in 10.0 mi Variable 3.5 mph - N/A   Overcast
3:53 PM 21.0 °F 16.2 °F 19.9 °F 96% 29.96 in 10.0 mi WSW 3.5 mph - N/A   Overcast
4:53 PM 21.9 °F - 21.0 °F 96% 29.94 in 10.0 mi Calm Calm - N/A   Overcast
5:53 PM 21.9 °F - 19.9 °F 92% 29.90 in 6.0 mi Calm Calm - 0.00 in Snow Light Snow
6:53 PM 21.0 °F - 19.9 °F 96% 29.83 in 10.0 mi Calm Calm - 0.00 in   Mostly Cloudy
7:53 PM 19.9 °F - 18.0 °F 92% 29.79 in 10.0 mi Calm Calm - N/A   Mostly Cloudy
8:53 PM 21.0 °F 14.6 °F 19.9 °F 96% 29.77 in 10.0 mi West 4.6 mph - N/A   Overcast
9:30 PM 21.9 °F 17.2 °F 19.9 °F 92% 29.74 in 1.8 mi NW 3.5 mph - 0.00 in Snow Light Snow
9:40 PM 23.0 °F - 21.0 °F 92% 29.73 in 1.5 mi Calm Calm - 0.00 in Snow Light Snow
9:53 PM 21.9 °F - 21.0 °F 96% 29.74 in 1.5 mi Calm Calm - 0.00 in Snow Light Snow
10:24 PM 21.9 °F - 21.9 °F 100% 29.72 in 1.0 mi Calm Calm - 0.01 in Snow Light Snow
10:41 PM 21.9 °F - 21.9 °F 100% 29.72 in 0.8 mi Calm Calm - 0.02 in Snow Light Snow
10:53 PM 21.9 °F - 21.0 °F 96% 29.72 in 0.8 mi Calm Calm - 0.02 in Snow Light Snow
11:17 PM 21.9 °F - 21.9 °F 100% 29.71 in 1.0 mi Calm Calm - 0.01 in Snow Light Snow
11:28 PM 21.9 °F 17.2 °F 21.9 °F 100% 29.70 in 1.8 mi West 3.5 mph - 0.01 in Snow Light Snow
11:44 PM 21.9 °F - 21.0 °F 96% 29.70 in 2.5 mi Calm Calm - 0.01 in Snow Light Snow
11:53 PM 21.9 °F - 21.0 °F 96% 29.70 in 6.0 mi Calm Calm - 0.01 in Snow Light Snow